Вернуться в каталог

STARLINK-36236

АктивенСвязьVLEO
NORAD 67078·PAYLOAD·🇺🇸 United States

Запущен Dec 14, 2025 с Vandenberg Space Force Base

Loading…

Ближайшие Пролёты (ближайшие 24 часа)

TLE

СвежийSource: CelesTrak SupGP

Эпоха: Sep 14, 2026, 21:14 UTC

1 67078C 25298D   26257.88520833  .00073044  00000+0  61217-2 0  2576
2 67078  69.9997 257.5525 0003823 265.5051 103.1997 14.98289481    15

Отслеживайте STARLINK-36236 в реальном времени с AllMySat

Download on the App Store